Weather History for KPYX - December, 2011

Change the Weather History Date:

Saturday, December 24, 2011

  Actual Average Record
Temperature  
Mean Temperature 20 °F -  
Max Temperature 32 °F 45 °F 71 °F (1971)
Min Temperature 8 °F 16 °F -7 °F (1983)
Degree Days  
Heating Degree Days 45    
Moisture  
Dew Point 15 °F    
Average Humidity 77    
Maximum Humidity 86    
Minimum Humidity 64    
Precipitation  
Precipitation 0.00 in - - ()
Sea Level Pressure  
Sea Level Pressure 30.37 in    
Wind  
Wind Speed 9 mph (WNW)    
Max Wind Speed 13 mph    
Max Gust Speed -    
Visibility 10 miles    
Events      
Averages and records for this station are not official NWS values.
T = Trace of Precipitation, MM = Missing Value Source: NWS Daily Summary

Daily Weather History Graph

Daily Weather History Graph

Search for Another Location

Airport or City:

Trip Planner

Search our weather history database for the weather conditions in past years. The results will help you decide how hot, cold, wet, or windy it might be!

Date:

Astronomy

Dec. 24, 2011 Rise Set
Actual Time 7:52 AM CST 5:32 PM CST
Civil Twilight 7:23 AM CST 6:01 PM CST
Nautical Twilight 6:51 AM CST 6:34 PM CST
Astronomical Twilight 6:19 AM CST 7:05 PM CST
Moon 7:42 AM CST (12/24) 5:47 PM CST (12/24)
Length of Visible Light 10h 38m
Length of Day
9h 40m
New Moon, 0% of the Moon is Illuminated
Dec 24
New Moon
Dec 24
New
Jan 1
First Quarter
Jan 9
Full
Jan 16
Last Quarter

Hourly Weather History & Observations

Time (CST) Temp. Windchill Dew Point Humidity Pressure Visibility Wind Dir Wind Speed Gust Speed Precip Events Conditions
12:15 AM 21.2 °F 10.9 °F 17.6 °F 86% 30.36 in 10.0 mi West 9.2 mph - N/A   Clear
12:35 AM 19.4 °F 8.6 °F 14.0 °F 80% 30.36 in 10.0 mi West 9.2 mph - N/A   Clear
12:55 AM 19.4 °F 9.5 °F 14.0 °F 80% 30.35 in 10.0 mi West 8.1 mph - N/A   Clear
1:35 AM 15.8 °F 4.2 °F 12.2 °F 86% 30.34 in 10.0 mi WNW 9.2 mph - N/A   Clear
1:55 AM 14.0 °F 2.0 °F 10.4 °F 86% 30.34 in 10.0 mi WNW 9.2 mph - N/A   Clear
2:15 AM 14.0 °F 1.2 °F 10.4 °F 86% 30.33 in 10.0 mi WNW 10.4 mph - N/A   Clear
2:35 AM 15.8 °F 2.7 °F 10.4 °F 79% 30.34 in 10.0 mi WNW 11.5 mph - N/A   Clear
3:15 AM 14.0 °F 3.9 °F 8.6 °F 79% 30.35 in 10.0 mi NW 6.9 mph - N/A   Clear
3:35 AM 14.0 °F 2.9 °F 8.6 °F 79% 30.35 in 10.0 mi WNW 8.1 mph - N/A   Clear
3:55 AM 14.0 °F 2.9 °F 8.6 °F 79% 30.36 in 10.0 mi West 8.1 mph - N/A   Clear
4:15 AM 14.0 °F 3.9 °F 8.6 °F 79% 30.36 in 10.0 mi West 6.9 mph - N/A   Clear
4:35 AM 14.0 °F 5.1 °F 8.6 °F 79% 30.35 in 10.0 mi West 5.8 mph - N/A   Clear
4:55 AM 12.2 °F 1.7 °F 6.8 °F 79% 30.36 in 10.0 mi WNW 6.9 mph - N/A   Clear
5:15 AM 12.2 °F 4.3 °F 6.8 °F 79% 30.36 in 10.0 mi West 4.6 mph - N/A   Clear
5:35 AM 12.2 °F 1.7 °F 8.6 °F 85% 30.36 in 10.0 mi WSW 6.9 mph - N/A   Clear
5:55 AM 12.2 °F 1.7 °F 6.8 °F 79% 30.37 in 10.0 mi WSW 6.9 mph - N/A   Clear
6:15 AM 12.2 °F -1.8 °F 5.0 °F 73% 30.37 in 10.0 mi WNW 11.5 mph - N/A   Clear
6:35 AM 10.4 °F -2.4 °F 5.0 °F 79% 30.38 in 10.0 mi WNW 9.2 mph - N/A   Clear
6:55 AM 10.4 °F -3.3 °F 5.0 °F 79% 30.39 in 10.0 mi WNW 10.4 mph - N/A   Clear
7:15 AM 8.6 °F -5.5 °F 5.0 °F 85% 30.38 in 10.0 mi WNW 10.4 mph - N/A   Clear
7:35 AM 10.4 °F -3.3 °F 5.0 °F 79% 30.38 in 10.0 mi WNW 10.4 mph - N/A   Clear
7:55 AM 10.4 °F -2.4 °F 5.0 °F 79% 30.39 in 10.0 mi WNW 9.2 mph - N/A   Clear
8:15 AM 12.2 °F -0.2 °F 5.0 °F 73% 30.39 in 10.0 mi WNW 9.2 mph - N/A   Clear
8:35 AM 12.2 °F -1.0 °F 5.0 °F 73% 30.39 in 10.0 mi NW 10.4 mph - N/A   Clear
8:55 AM 14.0 °F 0.5 °F 5.0 °F 67% 30.39 in 10.0 mi NW 11.5 mph - N/A   Clear
9:15 AM 17.6 °F 5.0 °F 8.6 °F 68% 30.40 in 10.0 mi NW 11.5 mph - N/A   Clear
9:35 AM 17.6 °F 5.7 °F 10.4 °F 73% 30.40 in 10.0 mi NW 10.4 mph - N/A   Clear
9:55 AM 21.2 °F 10.1 °F 12.2 °F 68% 30.40 in 10.0 mi NW 10.4 mph - N/A   Clear
10:15 AM 23.0 °F 12.4 °F 14.0 °F 68% 30.41 in 10.0 mi NW 10.4 mph - N/A   Clear
10:35 AM 23.0 °F 13.1 °F 14.0 °F 68% 30.41 in 10.0 mi WNW 9.2 mph - N/A   Clear
10:55 AM 24.8 °F 16.1 °F 17.6 °F 74% 30.41 in 10.0 mi WNW 8.1 mph - N/A   Clear
11:15 AM 26.6 °F 17.5 °F 17.6 °F 69% 30.41 in 10.0 mi NW 9.2 mph - N/A   Clear
11:35 AM 28.4 °F 18.5 °F 17.6 °F 64% 30.41 in 10.0 mi NW 11.5 mph - N/A   Clear
11:55 AM 28.4 °F 18.5 °F 19.4 °F 69% 30.41 in 10.0 mi NW 11.5 mph - N/A   Clear
12:15 PM 30.2 °F 21.3 °F 19.4 °F 64% 30.40 in 10.0 mi NW 10.4 mph - N/A   Clear
12:35 PM 30.2 °F 21.3 °F 19.4 °F 64% 30.39 in 10.0 mi WNW 10.4 mph - N/A   Clear
12:55 PM 30.2 °F 21.3 °F 21.2 °F 69% 30.39 in 10.0 mi NW 10.4 mph - N/A   Clear
1:15 PM 32.0 °F 23.0 °F 21.2 °F 64% 30.38 in 10.0 mi WNW 11.5 mph - N/A   Clear
1:35 PM 32.0 °F 23.0 °F 23.0 °F 69% 30.37 in 10.0 mi WNW 11.5 mph - N/A   Clear
1:55 PM 32.0 °F 23.6 °F 23.0 °F 69% 30.36 in 10.0 mi WNW 10.4 mph - N/A   Clear
2:15 PM 32.0 °F 24.2 °F 24.8 °F 75% 30.35 in 10.0 mi WNW 9.2 mph - N/A   Clear
2:35 PM 32.0 °F 24.8 °F 26.6 °F 80% 30.35 in 10.0 mi WNW 8.1 mph - N/A   Clear
2:55 PM 32.0 °F 24.8 °F 26.6 °F 80% 30.35 in 10.0 mi WNW 8.1 mph - N/A   Clear
3:15 PM 32.0 °F 24.8 °F 24.8 °F 75% 30.35 in 10.0 mi WNW 8.1 mph - N/A   Clear
3:35 PM 32.0 °F 24.2 °F 26.6 °F 80% 30.35 in 10.0 mi WNW 9.2 mph - N/A   Clear
3:55 PM 32.0 °F 23.6 °F 26.6 °F 80% 30.35 in 10.0 mi NW 10.4 mph - N/A   Clear
4:15 PM 32.0 °F 24.2 °F 24.8 °F 75% 30.35 in 10.0 mi NW 9.2 mph - N/A   Clear
4:35 PM 30.2 °F 21.9 °F 24.8 °F 80% 30.35 in 10.0 mi WNW 9.2 mph - N/A   Clear
4:55 PM 28.4 °F 19.7 °F 23.0 °F 80% 30.36 in 10.0 mi NW 9.2 mph - N/A   Clear
5:15 PM 28.4 °F 18.5 °F 23.0 °F 80% 30.36 in 10.0 mi NW 11.5 mph - N/A   Clear
5:35 PM 26.6 °F 15.7 °F 21.2 °F 80% 30.36 in 10.0 mi NW 12.7 mph - N/A   Clear
5:55 PM 24.8 °F 13.4 °F 19.4 °F 80% 30.37 in 10.0 mi NW 12.7 mph - N/A   Clear
6:15 PM 23.0 °F 12.4 °F 19.4 °F 86% 30.37 in 10.0 mi NW 10.4 mph - N/A   Clear
6:35 PM 23.0 °F 11.1 °F 17.6 °F 80% 30.37 in 10.0 mi NW 12.7 mph - N/A   Clear
6:55 PM 23.0 °F 11.1 °F 19.4 °F 86% 30.37 in 10.0 mi NW 12.7 mph - N/A   Clear
7:15 PM 23.0 °F 11.1 °F 17.6 °F 80% 30.38 in 10.0 mi NW 12.7 mph - N/A   Clear
7:35 PM 21.2 °F 8.9 °F 17.6 °F 86% 30.38 in 10.0 mi NW 12.7 mph - N/A   Clear
8:15 PM 19.4 °F 7.9 °F 15.8 °F 86% 30.37 in 10.0 mi WNW 10.4 mph - N/A   Clear
8:35 PM 19.4 °F 7.2 °F 15.8 °F 86% 30.36 in 10.0 mi WNW 11.5 mph - N/A   Clear
8:55 PM 19.4 °F 7.9 °F 14.0 °F 80% 30.37 in 10.0 mi WNW 10.4 mph - N/A   Clear
9:15 PM 19.4 °F 7.9 °F 15.8 °F 86% 30.37 in 10.0 mi WNW 10.4 mph - N/A   Clear
9:35 PM 19.4 °F 6.6 °F 14.0 °F 80% 30.37 in 10.0 mi NW 12.7 mph - N/A   Clear
9:55 PM 19.4 °F 7.2 °F 15.8 °F 86% 30.37 in 10.0 mi WNW 11.5 mph - N/A   Clear
10:15 PM 19.4 °F 8.6 °F 14.0 °F 80% 30.38 in 10.0 mi WNW 9.2 mph - N/A   Clear
10:35 PM 17.6 °F 5.0 °F 14.0 °F 86% 30.38 in 10.0 mi WNW 11.5 mph - N/A   Clear
10:55 PM 17.6 °F 5.7 °F 14.0 °F 86% 30.38 in 10.0 mi NW 10.4 mph - N/A   Clear
11:15 PM 17.6 °F 6.4 °F 14.0 °F 86% 30.39 in 10.0 mi NW 9.2 mph - N/A   Clear
11:35 PM 17.6 °F 5.7 °F 14.0 °F 86% 30.39 in 10.0 mi NW 10.4 mph - N/A   Clear
11:55 PM 17.6 °F 6.4 °F 14.0 °F 86% 30.39 in 10.0 mi NW 9.2 mph - N/A   Clear